Regional Weather Roundup
Issued by NWS

Home | Current Version | Previous Version | Graphics & Text | Print | Product List | Glossary Off
Versions: 1 2 3 4 5 6 7 8 9 10 11 12 13 14 15 16 17 18 19 20 21 22 23 24 25 26 27 28 29 30 31 32 33 34 35 36 37 38 39 40 41 42 43 44 45 46 47 48 49 50

000
ASUS43 KTOP 050359
RWRKS

WEATHER ROUNDUP FOR KANSAS
NATIONAL WEATHER SERVICE GOODLAND KS
1100 PM CDT FRI SEP 04 2015

NOTE:  "FAIR" INDICATES FEW OR NO CLOUDS BELOW 12,000 FEET WITH NO
SIGNIFICANT WEATHER AND/OR OBSTRUCTIONS TO VISIBILITY.

KSZ001>006-013>018-027>032-041>047-050500-
NORTHWEST KANSAS

CITY           SKY/WX    TMP DP  RH WIND       PRES   REMARKS
GOODLAND       MOCLDY    80  54  40 SE14      29.89S
HAYS           CLEAR     82  61  47 S14       29.89S
HILL CITY      CLEAR     84  60  44 S10G18    29.87R
RUSSELL        CLEAR     83  61  47 S20       29.88R
$$

KSZ061>065-074>080-084>089-050500-
SOUTHWEST KANSAS

CITY           SKY/WX    TMP DP  RH WIND       PRES   REMARKS
DODGE CITY     CLEAR     80  58  46 S16       29.94R
ELKHART          N/A     74  56  53 S8          N/A
GARDEN CITY    CLEAR     79  58  48 S15       29.92R
GREAT BEND     CLEAR     82  61  47 S18       29.90S
LIBERAL        MOCLDY    81  55  41 S12       29.96R
$$

KSZ066>073-081>083-090>101-050500-
SOUTHEAST KANSAS

CITY           SKY/WX    TMP DP  RH WIND       PRES   REMARKS
CHANUTE        CLEAR     76  70  82 SE7       29.98S
COFFEYVILLE    CLEAR     76  71  85 SE6       29.97S
HUTCHINSON     CLEAR     78  66  66 SE9       29.94R
NEWTON         CLEAR     77  64  65 SE9       29.98R
PARSONS        CLEAR     78  71  79 SE5       29.99S
WICHITA INTL   PTCLDY    80  68  66 S13       29.94R
WICHITA JABRA  CLEAR     80  68  66 S12       29.95R
WICHITA MCCONL CLEAR     79  67  66 SE10      29.95R
WINFIELD       CLEAR     79  69  71 SE8       29.96R
$$

KSZ007>012-019>026-033>040-048>060-102>105-050500-
NORTHEAST KANSAS

CITY           SKY/WX    TMP DP  RH WIND       PRES   REMARKS
CONCORDIA      CLEAR     81  66  60 S17       29.91R
EMPORIA        CLEAR     77  69  76 SE10      29.97R
LAWRENCE       CLEAR     73  69  87 SE5       29.97R
MANHATTAN      CLEAR     80  70  71 S13       29.93R
OLATHE IND     CLEAR     75  69  81 S7        29.99S
OLATHE EXE     CLEAR     76  68  76 S9        29.98S
SALINA         CLEAR     82  66  58 S15       29.91R
TOPEKA BILLARD CLEAR     79  69  71 SE9       29.96R
TOPEKA FORBES  CLEAR     78  69  73 SE8       29.97R
$$



USA.gov is the U.S. government's official web portal to all federal, state and local government web resources and services.